SL-4 R/B

Last updated on Tue Sep 16 2025 00:02:15 GMT+0000 (Coordinated Universal Time)

1 39679U 14021B 25258.00698863 .00010013 00000+0 26390-3 0 9991 2 39679 51.6075 110.7104 0109563 184.7214 175.2743 15.33257328629268

Satellite not in orbit